Regional Weather Roundup
Issued by NWS Sioux Falls, SD

Home | Current Version | Previous Version | Text Only | Print | Product List | Glossary On
Versions: 1 2 3 4 5 6 7 8 9 10 11 12 13 14 15 16 17 18 19 20 21 22 23 24 25 26 27 28 29 30 31 32 33 34 35 36 37 38 39 40 41 42 43 44 45 46 47 48 49 50
159
ASUS43 KFSD 181110
RWRFSD

WEATHER ROUNDUP FOR SE SOUTH DAKOTA/SW MINNESOTA/NW IOWA
NATIONAL WEATHER SERVICE SIOUX FALLS SD
600 AM CDT FRI AUG 18 2017

NOTE: "FAIR" INDICATES FEW OR NO CLOUDS BELOW 12,000 FEET WITH NO
SIGNIFICANT WEATHER AND OR OBSTRUCTIONS TO VISIBILITY.


SDZ038>040-050-052>070-181200-
SOUTHEAST SOUTH DAKOTA

CITY           SKY/WX    TMP DP  RH WIND       PRES   REMARKS
BROOKINGS      LGT RAIN  60  58  92 CALM      29.93R
CHAMBERLAIN    CLEAR     60  60 100 SE6       29.90F
HURON          CLOUDY    60  58  92 S8        29.87S
MADISON        PTSUNNY   61  61 100 SE6       29.90F
MITCHELL       PTCLDY    60  59  96 E5        29.89F
SIOUX FALLS    CLOUDY    62  61  96 N3        29.90R
WINNER         FAIR      60  56  86 SW7       29.91F
YANKTON        PTCLDY    59  57  93 NW6       29.92R
$$

MNZ071-072-080-081-089-090-097-098-181200-
SOUTHWEST MINNESOTA

CITY           SKY/WX    TMP DP  RH WIND       PRES   REMARKS
FAIRMONT       PTCLDY    61  60  97 NE7       29.86F
JACKSON        CLOUDY    61  59  94 CALM      29.90S
LUVERNE        RAIN      59  55  88 NE5       29.91R
MARSHALL       LGT RAIN  62  59  90 CALM      29.91S
MONTEVIDEO     LGT RAIN  63  61  94 NW6       29.91R
PIPESTONE      RAIN      61  57  88 E3        29.90F
REDWOOD FALLS  LGT RAIN  63  58  83 SW7       29.90R
TRACY          LGT RAIN  60  58  92 S3        29.91F
WINDOM         RAIN      61  59  94 W5        29.91R
WORTHINGTON    RAIN      62  58  86 N5        29.92R
$$

IAZ001>003-012>014-020>022-031-032-NEZ013-014-SDZ071-181200-
NORTHWEST IOWA

CITY           SKY/WX    TMP DP  RH WIND       PRES   REMARKS
CHEROKEE       PTCLDY    63  62  97 CALM      29.88R
DENISON        CLOUDY    63  61  94 CALM      29.91R
ESTHERVILLE    CLOUDY    59  59 100 E3        29.88F
LE MARS        CLOUDY    64  63  94 NW7       29.89R
ORANGE CITY    CLOUDY    66  63  88 N5        29.90R
SHELDON        CLOUDY    61  61 100 N5        29.89R
SIOUX CITY     CLOUDY    63  63 100 CALM      29.86S
SPENCER        LGT RAIN  62  60  93 NW6       29.89R
STORM LAKE     MOCLDY    63  61  94 SE5       29.89R
$$

ABBREVIATIONS USED IN REMARKS
   TC - TEMPERATURE IN CELSIUS
  WCI - WIND CHILL INDEX
   HX - HEAT INDEX
  VSB - VISIBILITY





USA.gov is the U.S. government's official web portal to all federal, state and local government web resources and services.